Temp
15 15 14 14 14 14 14 13 13 13 13 13 12 12 12 12 11 11 10 10 10 10 10 10 10 9 9 9 8 8 8 8 8 7 7 7 7 7 6 6 6 6 6 5 5 5 5 5 5 5 4 4 4 4 4 4 4 4 3 3 3 3 3 3 3 2 2 2 2
15 14 14 14 14 14 13 13 13 13 12 12 12 12 12 11 11 11 10 10 10 10 10 10 9 9 9 8 8 8 8 8 7 7 7 7 7 6 6 6 6 5 5 5 5 5 5 5 4 4 4 4 4 4 4 4 4 3 3 3 3 3 3 2 2 2 2 2 2
14 14 14 14 13 13 13 13 13 12 12 12 12 11 11 11 11 10 10 10 10 10 10 9 9 9 8 8 8 8 7 7 7 7 7 7 6 6 6 6 5 5 5 5 5 5 4 4 4 4 4 4 4 4 4 4 3 3 3 3 3 3 3 2 2 2 2 2 2
14 14 14 14 13 13 13 13 12 12 12 11 11 11 11 11 10 10 10 10 10 9 9 9 9 8 8 8 8 7 7 7 7 7 7 6 6 6 6 5 5 5 5 5 4 4 4 4 4 4 4 4 4 4 4 3 3 3 3 3 3 3 2 2 2 2 2 2 2
13 14 14 13 13 13 13 13 12 12 11 11 11 11 10 10 10 10 10 10 9 9 9 9 8 8 8 7 7 7 7 7 7 7 6 6 6 6 5 5 5 5 5 4 4 4 4 4 4 4 4 4 4 4 3 3 3 3 3 3 3 2 2 2 2 2 2 2 2
13 13 13 13 13 13 13 13 12 12 11 11 11 11 10 10 10 10 10 10 9 9 9 8 8 8 7 7 7 7 7 7 6 6 6 6 6 5 5 5 5 4 4 4 4 4 4 4 4 4 4 4 3 3 3 3 3 3 3 3 2 2 2 2 2 2 2 2 2
13 13 13 13 13 13 13 12 12 11 11 11 11 11 11 10 10 10 10 9 9 9 8 8 8 7 7 7 7 7 7 7 6 6 6 6 5 5 5 5 4 4 4 4 4 4 4 4 4 4 4 3 3 3 3 3 3 3 2 2 2 2 2 2 2 2 2 2 2
13 13 13 13 13 13 12 12 11 11 11 11 11 11 11 10 10 10 9 9 9 8 8 8 7 7 7 7 7 7 7 6 6 6 6 5 5 5 5 4 4 4 4 4 4 4 4 4 4 3 3 3 3 3 3 3 3 2 2 2 2 2 2 2 2 2 2 2 2
12 12 12 12 12 12 12 11 11 11 11 11 11 11 10 10 10 9 9 9 8 8 8 7 7 7 7 7 7 7 6 6 6 6 5 5 5 5 4 4 4 4 4 4 4 4 4 4 3 3 3 3 3 3 3 3 2 2 2 2 2 2 2 2 2 2 2 2 1
12 12 12 12 12 11 11 11 11 11 11 11 11 10 10 10 9 9 9 8 8 8 7 7 7 7 7 7 6 6 6 6 6 5 5 5 4 4 4 4 4 4 4 4 4 3 3 3 3 3 3 3 3 3 2 2 2 2 2 2 2 2 2 2 2 2 2 1 1
12 12 11 11 11 11 11 11 11 11 11 11 10 10 9 9 9 9 8 8 8 7 7 7 7 7 7 6 6 6 6 6 5 5 5 4 4 4 4 4 4 4 4 3 3 3 3 3 3 3 3 3 3 2 2 2 2 2 2 2 2 2 2 2 2 2 1 1 1
11 11 11 11 11 11 11 11 11 11 10 10 10 9 9 9 9 8 8 8 7 7 7 7 7 7 6 6 6 6 5 5 5 5 4 4 4 4 4 4 4 3 3 3 3 3 3 3 3 3 3 2 2 2 2 2 2 2 2 2 2 2 2 2 2 2 1 1 1
11 11 10 10 10 11 11 11 10 10 10 9 9 9 9 9 8 8 8 7 7 7 7 7 7 6 6 6 6 5 5 5 5 4 4 4 4 4 4 4 3 3 3 3 3 3 3 3 3 2 2 2 2 2 2 2 2 2 2 2 2 2 2 2 2 1 1 1 1
10 10 10 10 10 10 10 10 10 10 9 9 9 9 8 8 8 7 7 7 7 7 7 6 6 6 6 6 5 5 5 5 4 4 4 4 4 4 4 3 3 3 3 3 3 3 3 2 2 2 2 2 2 2 2 2 2 2 2 2 2 2 2 2 1 1 1 1 1
10 10 10 10 10 10 10 10 10 9 9 9 9 8 8 8 7 7 7 7 7 7 6 6 6 6 5 5 5 5 4 4 4 4 4 4 4 3 3 3 3 3 3 3 3 3 2 2 2 2 2 2 2 2 2 2 2 2 2 2 2 2 1 1 1 1 1 1 1
10 10 10 10 10 10 10 9 9 9 9 9 8 8 8 7 7 7 7 7 7 6 6 6 6 5 5 5 5 4 4 4 4 4 4 4 3 3 3 3 3 3 3 3 3 2 2 2 2 2 2 2 1 2 2 2 2 2 2 2 1 1 1 1 1 1 1 1 0
10 10 10 10 10 9 9 9 9 9 8 8 8 7 7 7 7 7 7 6 6 6 6 6 5 5 5 5 4 4 4 4 4 4 3 3 3 3 3 3 3 3 2 2 2 2 2 2 2 2 1 1 1 1 1 1 2 1 1 1 1 1 1 1 1 1 1 1 0
9 9 9 9 9 9 9 9 9 8 8 8 7 7 7 7 7 6 6 6 6 6 6 5 5 5 5 4 4 4 4 4 4 3 3 3 3 3 3 3 2 2 2 2 2 2 2 2 2 1 1 1 1 1 1 1 1 1 1 1 1 1 1 1 1 1 1 0 0
9 9 9 9 9 9 9 8 8 8 8 7 7 7 6 6 6 6 6 6 6 6 5 5 5 5 4 4 4 4 4 4 3 3 3 3 3 3 3 2 2 2 2 2 2 2 2 2 1 1 1 1 1 1 1 1 1 1 1 1 1 1 1 1 1 1 0 0 0
9 9 9 9 9 8 8 8 8 7 7 7 7 6 6 6 6 6 6 6 6 5 5 5 5 4 4 4 4 4 4 3 3 3 3 3 3 2 2 2 2 2 2 2 2 2 1 1 1 1 1 1 1 1 1 1 1 1 1 1 1 1 1 0 0 0 0 0 -0
9 9 8 8 8 8 8 8 7 7 7 6 6 6 6 6 6 6 6 6 5 5 5 5 4 4 4 4 4 4 3 3 3 3 3 3 2 2 2 2 2 2 2 2 2 1 1 1 1 1 1 1 1 1 1 1 1 1 1 1 0 0 0 0 0 0 -0 -0 -0
8 8 8 8 8 8 7 7 7 7 6 6 6 6 6 6 6 6 5 5 5 5 4 4 4 4 4 4 4 3 3 3 3 3 3 2 2 2 2 2 2 2 2 2 1 1 1 1 1 1 1 1 1 1 1 1 1 0 0 0 0 0 -0 -0 -0 -0 -0 -0 -0
8 8 8 7 7 7 7 7 6 6 6 6 6 6 6 6 5 5 5 5 5 4 4 4 4 4 4 3 3 3 3 3 3 3 2 2 2 2 2 2 2 1 1 1 1 1 1 1 1 1 1 1 1 1 1 1 0 0 0 -0 -0 -0 -0 -0 -0 -0 -1 -1 -1
7 7 7 7 7 7 6 6 6 6 6 6 6 5 5 5 5 5 5 4 4 4 4 4 4 4 3 3 3 3 3 3 3 2 2 2 2 2 2 2 1 1 1 1 1 0 1 1 1 1 1 1 1 1 0 0 0 -0 -0 -0 -0 -1 -1 -1 -1 -1 -1 -1 -1
7 7 7 7 6 6 6 6 6 6 6 5 5 5 5 5 5 5 4 4 4 4 4 4 4 4 3 3 3 3 3 2 2 2 2 2 2 2 2 1 1 1 1 1 0 0 1 1 1 1 1 1 1 0 0 0 -0 -0 -0 -1 -1 -1 -1 -1 -1 -1 -1 -1 -1
7 7 6 6 6 6 6 6 6 5 5 5 5 5 5 5 4 4 4 4 4 4 4 4 4 3 3 3 3 3 2 2 2 2 2 2 2 2 1 1 1 1 1 0 0 0 1 1 1 1 1 1 1 0 0 -0 -0 -1 -1 -1 -1 -1 -1 -1 -1 -1 -1 -1 -1
6 6 6 6 6 6 5 5 5 5 5 5 5 5 5 4 4 4 4 4 4 4 4 4 3 3 3 3 3 2 2 2 2 2 1 1 1 1 1 1 1 1 1 0 0 0 1 1 1 1 1 1 0 0 -0 -0 -1 -1 -1 -1 -1 -1 -1 -1 -1 -1 -1 -1 -1
6 6 6 5 5 5 5 5 5 5 5 5 4 4 4 4 4 4 4 4 4 4 4 3 3 3 3 3 2 2 2 2 1 1 1 1 1 1 1 1 1 1 0 0 -0 0 0 1 1 1 0 0 0 -0 -0 -1 -1 -1 -1 -2 -2 -2 -2 -1 -1 -1 -1 -1 -1
6 5 5 5 5 5 5 5 5 5 4 4 4 4 4 4 4 4 4 4 4 4 3 3 3 3 3 2 2 2 2 2 1 1 1 1 1 1 1 1 0 0 0 -0 -0 -0 0 0 0 0 0 0 0 -0 -1 -1 -1 -1 -2 -2 -2 -2 -2 -2 -2 -2 -2 -2 -2
5 5 5 5 5 5 5 5 4 4 4 4 4 4 4 4 4 4 4 4 3 3 3 3 3 3 2 2 2 2 2 1 1 1 1 1 1 1 1 0 0 0 -0 -0 -0 -0 0 0 0 0 0 0 -0 -0 -1 -1 -1 -2 -2 -2 -2 -2 -2 -2 -2 -2 -2 -2 -2
5 5 5 5 5 4 4 4 4 4 4 4 4 4 4 4 4 4 3 3 3 3 3 3 2 2 2 2 2 2 1 1 1 1 1 1 0 0 0 0 0 -0 -0 -1 -1 -0 -0 -0 -0 -0 -0 -0 -0 -1 -1 -1 -1 -2 -2 -2 -2 -2 -2 -2 -2 -2 -2 -2 -2
5 5 5 4 4 4 4 4 4 4 4 4 4 4 4 4 4 3 3 3 3 3 3 2 2 2 2 2 2 1 1 1 1 1 1 0 0 0 0 -0 -0 -0 -0 -1 -1 -1 -0 -0 -0 -0 -0 -0 -0 -1 -1 -1 -2 -2 -2 -2 -2 -2 -2 -2 -2 -2 -2 -2 -2
4 4 4 4 4 4 4 4 4 4 4 4 4 4 4 4 3 3 3 3 3 2 2 2 2 2 2 1 1 1 1 1 1 1 0 0 0 -0 -0 -0 -0 -0 -1 -1 -1 -1 -1 -1 -1 -1 -0 -0 -1 -1 -1 -1 -2 -2 -2 -2 -2 -2 -2 -2 -2 -2 -2 -2 -2
4 4 4 4 4 4 4 4 4 4 4 4 4 4 3 3 3 3 3 2 2 2 2 2 2 1 1 1 1 1 1 1 1 1 0 0 -0 -0 -0 -0 -0 -1 -1 -1 -1 -1 -1 -1 -1 -1 -1 -1 -1 -1 -1 -2 -2 -2 -2 -2 -2 -2 -2 -2 -2 -2 -2 -2 -2
4 4 4 4 4 4 4 4 4 4 4 4 4 3 3 3 3 2 2 2 2 2 2 2 1 1 1 1 1 1 1 1 0 0 0 -0 -0 -1 -1 -1 -1 -1 -1 -1 -1 -1 -1 -1 -1 -1 -1 -1 -1 -1 -1 -2 -2 -2 -2 -2 -2 -2 -2 -2 -2 -2 -2 -2 -2
4 4 4 4 4 4 4 4 4 4 4 4 3 3 3 2 2 2 2 2 2 2 2 2 1 1 1 1 1 1 1 0 0 -0 -0 -0 -1 -1 -1 -1 -1 -1 -1 -1 -1 -1 -1 -1 -1 -1 -1 -1 -1 -1 -1 -2 -2 -2 -2 -2 -2 -2 -2 -2 -2 -2 -2 -2 -2
4 4 4 4 4 4 4 4 4 4 3 3 3 3 2 2 2 2 2 2 2 2 2 2 1 1 1 1 1 1 0 0 -0 -0 -0 -1 -1 -1 -1 -1 -1 -1 -1 -1 -1 -2 -2 -1 -1 -1 -1 -1 -1 -1 -2 -2 -2 -2 -2 -2 -2 -2 -2 -2 -2 -2 -2 -2 -2
4 4 4 4 4 4 4 4 3 3 3 3 2 2 2 2 2 2 2 1 1 1 1 1 1 1 1 1 1 0 0 0 -0 -0 -1 -1 -1 -1 -1 -1 -1 -1 -1 -1 -2 -2 -2 -2 -1 -1 -1 -1 -1 -1 -2 -2 -2 -2 -2 -2 -2 -2 -2 -2 -2 -2 -2 -2 -3
3 3 4 4 4 3 3 3 3 3 3 2 2 2 2 2 2 1 1 1 1 1 1 1 1 1 1 0 0 0 0 -0 -0 -1 -1 -1 -1 -1 -1 -1 -1 -1 -1 -2 -2 -2 -2 -2 -2 -1 -1 -1 -1 -1 -2 -2 -2 -2 -2 -2 -2 -2 -2 -2 -2 -2 -2 -3 -3
3 3 3 3 3 3 3 3 3 2 2 2 2 2 2 2 1 1 1 1 1 1 1 1 1 1 0 0 -0 -0 -0 -0 -0 -1 -1 -1 -1 -1 -1 -2 -2 -2 -2 -2 -2 -2 -2 -2 -2 -1 -1 -1 -1 -1 -2 -2 -2 -2 -2 -2 -2 -2 -2 -2 -2 -2 -3 -3 -3
3 3 3 3 3 3 3 3 2 2 2 2 2 2 1 1 1 1 1 1 1 1 1 1 1 0 0 -0 -0 -0 -0 -1 -1 -1 -1 -1 -1 -1 -2 -2 -2 -2 -2 -2 -2 -2 -2 -2 -2 -2 -1 -1 -1 -2 -2 -2 -2 -2 -2 -2 -2 -2 -2 -2 -2 -3 -3 -3 -3
Height
769 770 771 772 773 775 776 777 778 779 780 781 781 782 783 784 785 786 787 788 788 789 789 790 790 790 791 791 791 791 792 792 792 792 792 792 791 791 791 790 790 789 788 788 787 787 786 786 785 785 784 784 783 783 783 782 781 781 781 780 779 779 778 777 776 776 775 775 774
769 770 771 772 773 775 776 777 778 779 780 781 782 782 783 784 785 786 787 788 788 789 789 789 790 790 791 791 791 791 792 792 792 792 791 791 791 791 790 790 789 789 788 787 787 786 786 785 784 784 783 783 783 782 782 781 781 780 780 779 778 778 777 776 776 775 775 774 773
769 770 771 772 773 774 776 776 778 779 780 781 782 783 784 785 786 786 787 787 788 788 789 789 790 790 791 791 791 791 792 792 791 791 791 791 791 790 790 789 789 788 787 787 786 786 785 784 784 783 783 782 782 781 781 781 780 780 779 778 778 777 776 776 775 775 774 773 772
769 770 771 772 773 774 775 776 778 779 780 781 782 783 784 785 786 786 787 787 788 788 789 789 790 790 791 791 791 791 791 791 791 791 791 791 790 790 789 789 788 788 787 786 786 785 784 784 783 783 782 782 781 781 781 780 780 779 779 778 777 776 776 775 774 774 773 772 771
769 770 771 772 773 774 776 777 778 779 781 781 782 783 784 785 786 786 786 787 788 788 789 789 790 790 791 791 791 791 791 791 791 791 790 790 790 789 789 788 788 787 786 786 785 784 784 783 782 782 782 781 781 781 780 780 779 778 778 777 776 776 775 774 773 773 772 771 770
769 770 771 772 774 775 776 777 778 779 780 781 782 783 784 785 785 786 786 787 787 788 789 789 790 790 791 791 791 791 791 791 790 790 790 789 789 789 788 788 787 786 786 785 784 784 783 782 782 781 781 781 780 780 780 779 778 778 777 776 776 775 774 773 772 772 771 770 769
769 770 771 773 774 775 776 778 779 780 780 781 782 783 784 785 785 786 786 787 787 788 789 789 790 790 790 790 790 790 790 790 790 789 789 789 788 788 787 787 786 786 785 784 784 783 782 782 781 781 781 780 780 779 779 778 778 777 776 775 775 774 773 772 771 771 770 769 768
769 771 772 773 774 775 776 778 779 780 780 781 782 783 784 784 785 786 786 787 787 788 789 789 789 790 790 790 790 790 790 789 789 789 788 788 788 787 787 786 786 785 784 784 783 782 781 781 781 780 780 780 779 779 778 777 777 776 775 774 774 773 772 771 770 769 768 767 766
770 771 772 773 774 776 777 778 779 779 780 781 782 783 784 784 785 786 786 787 787 788 788 789 789 789 790 790 789 789 789 789 788 788 788 787 787 786 786 786 785 784 784 783 782 781 781 781 780 780 780 779 778 778 777 777 776 775 774 773 772 772 771 770 769 768 767 766 765
770 771 772 773 775 776 777 778 779 780 780 781 782 783 784 784 785 786 786 787 787 788 788 789 789 789 789 789 789 789 788 788 788 788 787 787 786 786 786 785 784 784 783 782 781 781 780 780 779 779 779 778 778 777 776 776 775 774 773 772 771 771 770 769 768 767 766 765 764
770 771 772 773 775 776 777 778 779 780 780 781 782 783 784 784 785 786 786 787 787 788 788 789 789 789 789 789 788 788 788 788 787 787 787 786 786 786 785 784 784 783 782 781 781 780 780 779 779 778 778 777 777 776 776 775 774 773 772 771 771 769 768 767 767 766 765 764 763
770 771 772 774 775 776 777 778 779 780 781 781 782 783 783 784 785 786 786 787 787 788 788 788 788 788 788 788 788 788 788 787 787 787 786 786 785 785 784 784 783 782 782 781 781 780 779 779 778 777 777 776 776 776 775 774 773 772 771 770 769 768 767 766 765 765 764 762 761
770 771 773 774 775 776 777 778 779 780 781 781 782 783 783 784 785 786 786 787 787 788 788 788 788 788 788 788 788 787 787 787 786 786 786 785 785 784 784 783 782 782 781 781 780 779 779 778 777 777 776 776 775 775 774 773 772 771 770 769 768 767 766 765 764 763 762 761 760
771 772 773 774 775 776 777 778 779 780 781 781 782 783 784 784 785 786 786 787 787 787 788 788 788 788 788 787 787 787 787 786 786 786 785 785 784 784 783 782 782 781 781 780 779 779 778 777 777 776 776 775 774 774 773 772 771 770 769 768 767 766 765 764 763 762 761 760 759
771 772 773 774 776 776 777 778 779 780 781 781 782 783 784 785 786 786 786 787 787 787 787 787 787 787 787 787 787 786 786 786 786 785 785 784 783 783 782 782 781 781 780 779 779 778 777 777 776 776 775 774 773 773 772 771 770 769 768 767 766 765 763 762 761 761 760 759 758
771 773 774 775 776 776 777 778 779 780 781 782 782 783 784 785 786 786 786 787 787 787 787 787 787 787 787 787 786 786 786 786 785 785 784 783 783 782 782 781 781 780 779 778 778 777 776 776 776 775 774 773 773 772 771 770 769 768 767 766 765 764 762 761 760 759 758 757 756
772 773 774 775 776 776 777 778 779 780 781 782 783 784 784 785 786 786 786 786 787 787 787 787 787 787 787 786 786 786 785 785 785 784 783 783 782 782 781 781 780 779 778 777 777 776 776 775 775 774 773 773 772 771 770 769 768 767 766 765 764 762 761 760 759 758 757 756 756
772 773 774 775 776 777 777 778 779 780 781 782 783 784 785 785 786 786 786 786 786 786 787 787 786 786 786 786 786 785 785 784 784 783 783 782 782 781 781 780 779 778 778 777 776 775 775 774 774 773 772 771 771 770 769 768 766 766 765 763 762 761 760 759 758 757 756 755 754
773 774 775 775 776 777 778 779 780 781 781 782 783 784 785 785 786 786 786 786 786 786 786 786 786 786 786 786 785 785 784 784 783 783 782 782 781 781 780 779 779 778 777 776 775 775 774 773 773 772 771 771 770 769 768 766 766 764 763 762 761 760 759 758 757 756 755 754 753
773 774 775 776 776 777 778 779 780 781 782 783 784 784 785 785 786 786 786 786 786 786 786 786 786 786 785 785 785 784 784 783 783 782 782 781 781 780 779 778 778 777 776 775 775 774 773 772 772 771 770 769 768 767 766 765 764 763 762 761 760 759 758 757 756 755 754 753 752
773 774 775 776 777 777 778 779 780 781 782 783 784 784 785 785 785 786 786 786 786 786 786 786 785 785 785 784 784 783 783 783 782 782 781 781 780 779 779 778 777 776 775 774 774 773 772 771 771 770 769 768 767 766 765 764 763 761 761 760 758 757 756 756 755 754 753 752 751
774 775 776 776 777 778 779 780 781 781 782 783 784 784 785 785 785 786 786 786 786 786 785 785 785 784 784 784 783 783 782 782 782 781 781 780 780 779 778 777 776 775 774 773 773 772 771 771 770 770 769 767 766 765 764 763 761 760 759 758 757 756 755 754 753 752 751 751 750
774 775 776 776 777 778 779 780 781 782 782 783 784 784 785 785 785 785 785 785 785 785 785 785 784 784 784 783 783 782 782 781 781 781 780 780 779 778 777 776 775 774 773 772 772 771 771 770 769 769 768 767 765 764 763 761 760 759 758 756 756 755 754 753 752 751 750 749 748
774 775 776 777 778 779 779 780 781 782 783 783 784 784 785 785 785 785 785 785 785 785 785 784 784 784 783 783 782 782 781 781 780 780 779 779 778 777 776 775 774 773 773 772 771 771 771 770 769 768 766 766 764 763 761 760 759 758 757 756 754 753 752 752 751 750 749 747 746
775 776 776 777 778 779 780 781 781 782 783 783 784 784 785 785 785 785 785 785 785 784 784 784 783 783 783 782 782 782 781 781 780 779 778 777 776 776 775 774 773 773 772 771 771 771 770 770 768 767 766 764 763 761 760 759 758 757 756 755 753 752 751 750 749 748 747 746 745
775 776 777 778 778 779 780 781 781 782 783 783 784 784 784 784 784 784 784 784 784 784 784 783 783 783 782 782 781 781 781 780 779 779 777 776 776 775 774 773 773 772 771 771 770 770 769 769 767 766 765 763 762 760 759 758 757 756 755 754 753 751 750 749 747 746 746 745 744
775 776 777 778 779 780 781 781 782 782 783 783 784 784 784 784 784 784 784 784 784 783 783 783 782 782 782 781 781 781 780 779 779 778 777 776 775 774 773 773 772 771 771 770 770 769 768 767 766 765 764 762 761 759 758 757 756 755 754 753 752 751 749 748 746 745 744 743 742
776 776 777 778 779 780 781 781 782 782 783 783 783 783 783 783 784 784 783 783 783 783 783 782 782 782 781 781 780 780 779 779 778 777 776 775 774 773 773 772 771 771 770 770 769 768 767 766 765 764 763 761 760 759 757 756 755 754 753 752 751 750 748 747 746 744 743 742 741
776 777 778 779 780 780 781 781 782 782 783 783 783 783 783 783 783 783 783 783 783 782 782 782 781 781 781 780 780 779 778 778 777 776 775 774 773 773 772 771 771 770 769 769 768 767 766 765 764 763 762 761 759 758 756 755 754 753 752 751 750 749 747 746 745 744 742 741 740
776 777 778 779 780 781 781 782 782 782 782 783 783 783 783 783 783 783 783 782 782 782 781 781 781 781 780 780 779 778 777 777 776 775 774 773 772 772 771 771 770 769 768 768 767 766 765 764 763 762 761 760 758 757 756 755 754 752 751 750 749 748 746 745 744 743 742 741 740
777 778 778 779 780 781 781 782 782 782 782 782 782 782 782 782 782 782 782 782 782 781 781 781 780 780 779 779 778 777 776 776 775 774 773 773 772 771 771 770 769 768 767 767 766 765 764 763 762 761 760 759 757 756 755 754 753 752 751 750 748 747 746 745 743 742 741 740 739
777 778 779 780 780 781 781 782 782 782 782 782 782 782 782 782 782 782 782 782 781 781 781 780 780 779 778 778 777 776 776 775 774 773 773 772 771 771 770 769 768 767 766 766 765 764 763 762 761 760 759 758 756 755 754 753 752 751 750 749 747 746 745 744 743 742 741 739 738
777 778 779 780 780 781 781 781 781 782 782 782 782 782 782 782 782 782 782 781 781 781 780 780 779 779 778 777 776 776 775 774 773 773 772 772 771 770 769 768 768 766 766 765 764 763 762 761 760 759 758 756 756 754 753 752 751 750 749 748 746 746 745 743 742 741 740 738 737
778 778 779 780 780 781 781 781 781 781 781 782 782 782 782 782 782 781 781 781 781 780 780 780 779 778 778 777 776 775 774 773 773 772 772 771 771 770 769 768 767 766 765 764 763 762 761 760 759 758 757 756 754 753 752 751 750 748 747 746 746 745 743 742 741 740 739 737 736
778 778 779 780 780 781 781 781 781 781 781 781 782 782 782 781 781 781 781 781 780 780 780 779 779 778 777 776 776 775 774 773 772 772 771 771 770 769 768 767 766 765 764 763 762 761 760 759 758 757 756 755 753 752 751 750 748 747 746 745 744 743 742 741 740 739 737 736 734
778 779 779 780 780 780 781 781 781 781 781 781 781 781 781 781 781 781 781 780 780 779 779 778 778 777 776 775 775 774 774 773 772 771 771 770 769 768 767 766 765 764 763 762 761 760 759 758 757 756 755 753 752 751 750 749 747 746 745 744 743 742 741 740 738 737 736 734 733
778 779 779 779 780 780 780 781 781 781 781 781 781 781 781 781 781 781 781 780 779 779 778 777 777 776 776 775 774 774 773 773 772 771 770 769 768 767 766 765 764 763 762 761 760 759 758 757 756 755 754 752 751 750 749 747 746 745 744 743 741 740 739 738 736 735 733 732 731
778 779 779 779 780 780 780 780 781 781 781 781 781 781 781 781 781 781 780 780 779 778 777 777 776 776 775 775 774 773 773 772 772 771 770 769 768 767 766 764 763 762 761 761 760 759 758 756 756 754 753 751 750 749 747 746 745 744 743 741 740 739 737 736 735 733 731 731 730
778 779 779 779 779 780 780 780 781 781 781 781 781 781 781 781 781 780 780 779 779 778 777 776 776 776 775 774 774 773 772 772 771 770 769 768 767 766 765 764 763 762 761 760 759 758 757 756 755 753 752 751 749 748 746 745 744 743 741 740 738 737 735 734 733 731 730 729 729
778 779 779 779 779 780 780 780 781 781 781 781 781 781 781 781 780 780 779 779 778 778 777 776 776 775 775 774 773 772 772 771 771 770 769 768 767 766 765 763 762 761 760 759 758 757 756 755 754 753 751 750 749 747 746 744 743 741 740 739 737 735 733 732 731 730 729 728 727
778 779 779 779 780 780 780 781 781 781 781 781 781 781 781 780 780 779 779 778 778 777 777 776 776 775 775 774 773 772 771 770 770 769 768 767 766 765 764 763 761 761 760 759 757 756 756 754 753 752 751 749 748 746 745 744 742 740 739 737 736 734 732 730 729 729 728 727 726
Wind_Speed
27 26 25 24 24 22 21 20 18 17 16 15 15 14 12 11 11 10 9 7 6 4 3 2 1 0 0 0 1 1 1 2 2 2 3 4 5 5 6 7 8 8 9 10 11 11 12 13 14 14 15 15 16 16 16 17 18 19 19 20 20 20 20 20 19 19 19 18 18
26 26 25 24 23 22 21 20 18 17 16 15 14 13 12 11 11 10 9 7 5 4 3 2 1 1 0 0 0 1 1 1 2 2 3 4 5 6 7 7 8 9 10 11 11 12 13 14 14 15 15 16 16 16 17 17 18 19 20 20 20 20 20 19 19 19 19 19 19
26 26 25 24 24 22 21 20 19 18 17 16 14 13 12 11 10 9 8 6 5 4 3 2 2 2 1 1 0 1 1 2 2 3 4 5 6 7 7 8 9 10 11 11 12 13 13 14 15 15 16 16 17 17 18 18 19 19 20 21 21 20 20 19 19 19 19 19 19
27 26 25 25 23 22 21 20 19 18 17 16 15 13 12 10 9 8 7 6 5 4 4 3 3 2 2 1 0 1 2 2 3 4 5 6 7 7 8 9 10 11 11 12 13 13 14 14 15 15 16 17 17 18 18 19 19 20 20 20 20 20 20 19 19 19 19 19 19
27 26 25 24 23 21 20 19 19 19 18 16 15 13 12 10 9 8 7 6 6 5 4 4 3 2 2 0 1 2 2 3 3 4 5 6 7 8 9 10 11 11 12 13 13 14 14 15 15 16 16 17 17 18 19 19 20 20 20 20 20 20 19 19 19 19 19 19 19
27 26 25 23 22 20 20 19 19 18 17 16 14 13 11 10 9 8 7 7 6 5 5 4 3 2 1 0 1 2 3 3 4 5 6 7 8 9 10 11 11 12 13 13 14 14 15 15 16 16 17 17 18 18 19 19 20 20 20 20 20 19 19 19 19 19 19 19 19
26 25 24 23 21 20 20 19 18 17 16 14 13 12 11 10 9 8 7 7 6 5 5 4 3 2 1 1 2 2 3 3 4 5 6 7 9 10 11 12 12 13 14 14 15 15 15 16 16 17 18 18 19 19 19 19 19 20 20 20 20 19 19 19 20 20 20 19 19
25 24 23 22 21 20 19 18 17 16 14 13 11 11 10 9 8 8 7 6 6 5 4 3 2 1 1 2 2 3 3 4 5 6 7 8 10 11 12 13 13 14 14 15 15 16 16 16 17 18 18 19 19 19 19 19 19 20 20 20 20 20 19 20 20 20 20 19 19
24 23 22 21 20 19 18 17 16 14 13 12 11 10 9 8 8 7 6 6 5 4 3 2 1 1 1 2 2 3 4 5 6 7 8 9 11 12 13 14 14 15 15 15 16 16 17 17 17 18 18 19 19 20 19 19 20 20 20 20 20 20 20 20 20 20 19 19 18
24 23 21 20 19 18 17 16 14 13 13 12 11 10 9 8 7 6 5 5 4 3 2 1 1 1 2 2 2 3 4 5 7 8 9 11 12 13 14 15 15 16 16 16 17 17 17 18 18 18 19 19 19 20 19 19 20 20 20 20 20 21 21 20 20 20 19 19 18
24 22 21 20 19 18 16 15 14 13 12 11 11 10 9 8 7 6 5 4 3 3 2 1 1 1 2 2 3 4 5 6 7 9 10 12 13 14 15 15 16 16 16 17 17 17 18 18 19 19 19 19 19 19 19 19 19 20 20 20 20 21 21 21 20 20 19 19 18
23 22 21 20 18 17 16 15 14 12 12 11 10 9 8 7 6 5 5 4 3 2 1 1 1 1 1 2 3 4 6 7 8 10 11 12 13 14 15 16 16 16 17 17 17 18 18 19 19 20 20 19 19 19 19 19 20 20 21 21 21 21 21 21 21 20 19 19 18
23 21 20 19 18 17 15 14 13 12 11 11 10 9 8 7 6 5 4 4 3 2 2 1 1 1 1 2 4 5 6 8 9 11 12 13 14 15 15 16 16 17 17 17 17 18 18 19 19 19 20 20 19 19 19 19 20 20 21 21 21 21 22 22 21 21 20 19 18
22 21 20 18 17 16 15 14 13 12 12 11 10 9 8 7 7 5 4 4 3 2 2 1 1 0 2 3 5 6 7 9 10 11 12 13 14 15 16 16 16 17 17 17 17 18 18 19 19 19 19 19 19 19 19 19 20 20 21 21 22 22 22 22 22 21 20 19 18
21 20 18 17 16 15 14 14 13 12 12 11 10 9 8 7 6 5 4 3 3 2 2 1 1 1 2 4 5 7 8 10 11 12 13 14 15 15 16 16 16 17 17 17 18 18 18 18 18 18 19 19 19 20 20 20 20 21 21 21 22 22 22 22 22 21 20 19 19
20 19 18 17 16 15 14 13 13 12 11 11 10 9 8 7 6 5 4 3 3 3 2 1 1 2 3 5 6 8 9 11 12 13 14 15 15 16 16 16 17 17 17 18 18 18 18 18 18 18 18 19 19 20 20 21 21 21 21 21 22 22 22 22 22 21 21 20 19
19 18 17 16 15 15 14 13 12 12 11 10 9 8 7 6 5 4 4 4 3 3 2 1 2 3 4 6 7 9 10 11 13 14 15 15 15 16 16 16 17 17 18 18 18 19 19 18 18 18 18 19 20 20 21 21 21 22 22 22 22 22 22 22 22 22 21 20 20
19 18 17 16 15 14 13 13 12 11 10 9 8 7 6 6 5 5 4 4 3 2 1 2 3 4 6 7 9 10 11 13 13 14 15 15 15 15 16 16 16 17 17 18 18 19 18 18 18 18 19 19 20 20 21 21 22 22 22 22 23 23 23 22 22 22 21 21 21
18 17 16 15 14 14 13 12 11 10 9 8 8 7 6 6 5 5 4 4 2 2 2 3 4 5 7 8 10 11 12 13 14 14 14 14 14 15 15 16 16 17 18 18 18 18 18 18 18 19 20 20 20 21 21 21 22 22 22 23 23 23 23 23 22 22 22 22 22
17 16 16 15 14 13 12 11 10 10 9 8 7 7 6 6 6 5 4 3 2 1 2 4 5 6 8 9 11 12 13 13 14 14 14 14 14 15 15 16 17 17 18 18 18 18 18 18 19 19 20 20 21 21 21 22 22 22 23 23 23 23 23 23 22 22 22 22 22
16 15 14 13 13 12 11 11 10 9 9 8 7 7 6 6 5 4 3 2 1 2 3 5 6 8 9 10 12 12 13 13 13 13 14 14 14 15 16 16 17 18 18 19 18 18 18 19 19 20 20 20 20 21 21 22 22 23 23 23 23 23 23 23 23 23 23 23 23
15 14 13 12 12 11 11 10 10 9 9 8 7 7 6 5 4 3 2 1 1 3 4 5 7 8 10 11 12 13 13 13 13 13 13 14 14 15 16 17 18 18 19 19 19 19 19 19 19 20 20 20 20 21 21 22 22 23 23 23 23 23 23 23 23 23 23 23 23
15 14 13 12 11 11 10 10 10 9 8 8 7 6 5 4 3 2 2 1 2 3 5 6 8 9 10 11 12 13 13 13 13 13 13 14 15 15 16 17 18 19 20 20 19 19 19 19 20 19 20 20 20 21 21 22 22 22 23 23 23 23 23 23 23 24 24 24 23
14 13 13 12 11 11 10 10 9 9 8 7 6 5 4 3 3 2 1 2 3 4 6 7 8 9 10 11 12 12 12 13 13 14 14 14 15 16 17 18 19 20 20 20 19 18 18 19 19 19 20 20 20 21 21 21 22 22 22 23 23 24 24 24 24 24 24 23 23
14 13 13 12 11 11 10 9 9 8 7 7 6 5 4 3 2 1 2 3 4 5 6 7 8 9 10 11 11 11 12 13 14 15 15 16 16 17 18 19 19 20 20 20 18 17 17 18 18 19 20 20 21 21 21 21 21 21 22 22 23 24 25 25 24 24 23 22 22
14 13 13 12 11 10 10 9 8 8 7 6 5 4 3 2 1 2 3 4 5 6 7 8 9 9 10 11 11 12 12 13 14 15 16 17 18 18 19 19 20 20 20 19 18 17 18 18 18 19 19 20 21 21 21 21 21 21 21 22 23 24 24 25 25 24 23 21 20
14 14 13 12 11 10 9 8 8 7 6 5 4 3 2 1 1 2 3 4 5 6 7 8 9 10 11 11 12 13 13 14 15 16 17 18 18 19 19 20 20 20 20 19 18 17 18 18 18 19 19 20 21 21 21 21 21 21 22 22 23 23 24 24 24 24 23 21 19
14 13 12 11 10 10 9 8 7 6 5 4 3 2 1 1 2 3 4 5 5 6 7 8 9 10 11 12 13 13 14 15 16 17 17 18 18 19 20 20 20 20 20 19 18 18 18 18 19 19 19 20 20 20 20 20 21 21 22 22 23 23 24 24 23 23 21 20 20
14 13 12 11 10 9 8 7 6 5 4 3 2 1 1 2 3 3 4 5 6 7 8 9 10 11 12 13 13 14 15 16 17 17 18 18 19 19 19 20 20 20 20 19 18 18 18 18 19 19 19 19 20 20 19 20 21 21 22 22 22 23 23 23 23 22 21 20 20
13 12 11 10 9 9 8 7 6 5 4 2 1 0 1 2 3 4 5 6 7 8 9 10 11 12 13 14 15 15 16 17 17 18 19 19 20 20 20 20 20 20 20 19 18 18 18 19 19 19 19 19 19 19 19 20 21 21 21 22 22 23 23 23 22 21 21 21 21
11 11 10 10 9 8 7 6 5 4 3 1 0 1 2 2 3 4 5 6 7 8 9 10 11 13 13 14 15 16 17 18 18 19 19 20 20 20 20 20 20 20 20 18 18 18 18 19 19 19 19 19 19 19 19 20 21 21 21 21 22 22 23 22 22 22 22 22 22
10 10 10 9 9 8 7 6 4 3 2 0 1 1 2 3 3 4 5 7 8 9 10 11 13 14 15 15 16 17 18 18 19 19 19 19 20 20 20 20 20 20 19 18 18 18 18 19 19 19 19 19 19 19 19 20 20 20 20 20 21 21 22 22 22 22 22 23 23
10 9 9 9 8 7 6 5 3 2 1 0 1 2 2 3 3 4 6 7 8 10 12 13 14 15 16 17 18 18 19 19 19 19 19 19 19 20 20 20 20 20 19 18 18 18 18 19 19 19 19 19 19 19 20 20 20 20 20 20 21 21 21 22 23 23 23 23 24
9 9 9 9 8 7 5 4 2 1 0 1 1 2 2 3 4 6 7 8 9 11 12 13 14 15 16 17 18 19 19 19 19 19 19 19 19 19 20 20 20 19 19 19 18 18 19 19 19 19 19 19 19 20 20 21 20 20 20 20 21 21 22 22 23 23 23 24 24
9 9 9 8 7 6 4 3 2 1 1 1 2 2 3 4 6 7 8 9 10 11 12 13 14 15 15 16 17 18 19 20 19 19 19 19 19 20 20 20 19 19 19 19 18 18 19 19 19 20 20 20 20 20 21 21 20 20 20 21 21 22 22 23 23 23 23 24 24
9 9 8 7 6 5 4 3 2 1 1 2 2 3 4 5 6 8 9 10 11 12 13 14 15 15 16 17 18 18 19 19 19 19 19 19 19 20 20 20 20 19 19 19 19 19 19 19 19 20 20 20 21 21 21 21 21 21 21 21 22 23 23 24 24 24 24 24 24
8 7 7 6 5 4 3 3 2 2 2 3 3 4 5 6 7 8 10 11 12 13 14 15 16 16 17 18 18 18 18 18 19 19 19 19 19 20 20 20 20 19 19 19 19 19 19 19 20 20 20 21 21 21 21 21 21 21 22 22 23 23 24 24 24 24 24 24 23
7 6 6 6 5 4 4 3 3 3 3 4 4 5 6 7 8 9 10 12 13 14 15 16 16 17 17 18 18 18 18 18 18 18 19 19 19 19 20 20 20 19 19 19 19 19 19 19 19 20 20 21 21 22 22 21 21 22 22 23 23 24 24 24 24 24 23 23 21
7 6 6 5 5 4 4 3 3 3 4 4 5 6 7 8 9 10 11 12 13 14 15 16 16 17 17 17 18 18 18 18 17 18 18 19 19 19 19 20 20 19 19 19 19 19 19 19 20 20 20 20 21 21 21 21 22 22 23 23 24 24 24 23 22 22 21 21 20
7 6 6 5 5 5 4 4 4 4 4 5 6 7 8 9 10 11 11 12 13 13 14 15 16 16 17 17 18 18 18 18 17 17 18 18 18 18 18 19 19 19 19 19 19 19 19 19 19 20 20 20 21 21 21 21 22 22 23 23 24 24 24 22 21 19 19 19 19
7 6 6 5 5 5 4 4 4 4 4 5 7 8 9 9 10 11 11 12 13 14 14 15 15 16 16 17 17 18 18 18 18 18 18 18 18 18 18 18 19 19 19 19 19 19 19 19 19 20 20 20 20 20 21 21 22 22 23 23 23 23 22 21 19 17 17 19 21
Wind_Direction
176 175 175 175 175 173 172 170 170 170 171 172 171 172 174 176 175 175 176 181 183 182 180 181 200 264 295 324 348 352 349 351 356 359 0 0 359 358 357 356 355 354 353 352 351 350 348 347 347 347 348 349 350 351 352 353 352 351 350 349 348 347 346 345 344 343 342 340 338
176 176 176 175 174 172 170 168 168 170 172 173 173 173 175 177 177 177 176 176 176 175 175 177 191 190 179 156 3 356 358 0 3 4 3 0 358 357 356 356 355 354 353 353 352 350 350 349 349 349 350 350 350 351 352 352 351 349 348 347 346 345 344 343 342 341 339 338 337
176 176 175 174 173 171 168 167 168 169 171 171 172 172 174 177 179 177 174 171 171 173 174 175 180 180 170 153 115 16 8 4 3 0 0 359 357 356 355 355 355 355 354 354 352 352 351 350 350 351 351 350 350 350 350 350 349 347 346 344 344 343 342 341 340 339 338 336 335
175 175 175 174 173 172 170 168 168 169 169 168 169 170 172 174 176 176 173 172 171 172 174 176 178 176 173 153 55 16 6 359 355 355 356 357 356 356 355 354 355 355 355 354 354 353 352 351 351 351 351 350 349 349 349 348 347 345 343 342 342 341 340 339 339 338 337 335 334
174 174 174 174 173 173 172 171 170 169 168 169 168 168 170 172 174 175 174 172 171 173 178 181 182 181 182 156 10 4 358 353 351 351 352 354 355 355 355 355 356 356 356 355 354 353 352 351 350 350 350 349 348 348 347 346 344 342 341 341 340 340 339 338 338 338 336 334 334
172 172 172 172 172 172 172 172 171 170 170 170 169 169 169 171 173 174 173 172 176 180 184 186 189 191 199 324 348 348 349 349 349 350 351 353 355 355 356 357 357 357 356 355 354 353 351 350 349 349 348 347 346 345 345 344 342 340 339 339 339 339 338 338 337 337 335 334 333
171 170 170 171 171 172 172 172 171 170 169 170 170 170 170 171 172 172 174 178 182 185 187 191 194 202 243 323 334 338 341 347 350 351 353 355 356 357 357 357 357 356 356 354 353 352 350 349 348 348 347 345 344 344 344 343 341 340 338 338 338 338 338 337 337 336 335 333 332
168 169 169 170 171 172 172 171 170 168 167 167 169 170 171 171 171 173 176 180 183 187 191 194 199 227 293 319 328 333 341 347 351 354 356 357 358 358 357 356 355 355 354 353 352 351 349 348 347 347 346 345 344 343 342 342 341 339 338 337 337 337 337 337 337 335 334 332 331
165 166 167 168 170 170 169 168 167 166 165 166 168 169 170 170 171 173 175 176 182 187 190 193 215 270 306 315 327 335 344 349 354 357 359 359 359 358 356 354 353 353 353 352 351 349 348 347 346 346 345 344 343 342 341 342 340 339 338 337 336 336 336 337 336 335 333 331 329
163 164 165 165 165 165 164 163 164 165 166 166 166 167 168 169 170 172 174 178 182 184 184 196 253 291 304 317 330 342 349 352 355 358 360 0 359 357 355 353 352 351 351 350 350 349 348 346 345 344 344 343 342 341 341 341 340 339 337 336 335 335 335 336 336 334 332 330 327
163 163 163 162 161 161 161 161 162 164 165 165 165 165 167 168 170 172 176 180 181 180 185 227 270 289 304 326 343 351 354 355 357 358 359 358 356 354 353 351 350 350 349 349 349 348 347 346 345 343 342 341 341 341 341 341 339 338 336 336 335 334 334 335 335 334 331 328 326
161 160 160 160 160 161 161 161 161 162 163 163 164 164 165 168 171 174 178 181 180 184 203 237 261 280 312 342 351 354 355 357 358 357 356 355 353 351 350 350 349 348 348 348 348 347 347 346 345 343 342 341 341 341 341 340 338 337 335 335 334 333 333 333 334 333 330 327 324
159 158 158 158 159 160 161 160 160 160 161 163 163 164 165 168 172 176 179 180 183 194 213 226 242 282 339 354 356 357 357 358 357 355 353 351 350 349 348 348 347 347 347 347 347 347 346 346 345 344 342 341 341 341 340 339 337 336 334 333 333 332 332 332 332 331 328 325 322
157 157 157 157 158 159 159 158 158 159 161 162 163 164 166 169 172 176 179 181 187 194 200 201 208 343 357 358 358 358 357 355 353 351 349 348 348 347 347 347 346 346 346 346 346 345 346 345 344 343 342 341 340 339 339 338 336 334 333 332 331 330 330 331 331 329 327 324 320
156 156 157 157 157 157 157 157 158 159 161 161 162 163 166 169 172 176 178 182 183 182 177 167 118 24 7 0 359 356 355 352 350 348 347 346 346 346 346 345 345 345 345 345 344 344 345 344 344 343 342 341 339 338 337 336 335 333 332 331 330 329 329 329 329 328 325 322 319
155 155 156 156 156 157 157 157 157 159 160 159 160 163 167 170 172 176 178 178 174 168 158 136 64 24 11 3 357 354 351 349 347 346 346 346 345 345 345 345 346 346 345 344 344 343 343 344 344 343 342 340 338 337 336 334 333 332 331 330 329 329 329 328 328 327 324 321 318
155 155 156 156 156 156 156 156 157 157 158 158 160 164 168 172 175 177 175 170 164 155 137 85 32 15 7 2 357 352 349 347 346 346 346 346 345 345 345 345 346 346 346 345 344 343 343 343 344 344 343 340 338 335 334 333 332 331 330 329 329 329 329 328 327 326 324 321 317
155 155 156 156 156 156 155 155 155 156 158 160 163 167 171 174 175 174 170 164 154 136 94 44 18 6 2 359 355 351 348 346 345 345 345 345 345 345 345 346 346 346 346 346 345 344 344 344 345 345 343 339 336 334 333 332 331 330 329 329 329 329 329 328 327 326 324 320 317
155 155 155 156 155 154 154 154 155 156 160 163 167 170 172 173 171 168 163 155 142 103 49 22 10 3 359 355 352 349 347 345 344 343 343 344 345 345 346 346 347 347 347 347 346 345 345 345 346 344 341 338 335 333 332 331 330 330 329 329 329 329 329 329 328 326 324 321 318
155 155 155 155 154 154 154 154 156 159 163 167 170 171 170 168 166 161 153 141 116 56 19 7 2 359 355 351 348 347 345 344 343 343 343 344 345 347 348 348 348 348 348 347 347 347 347 347 345 342 339 336 333 332 332 331 330 330 330 330 330 330 330 329 328 327 325 322 319
156 155 155 155 155 155 155 157 159 163 166 168 169 167 164 162 159 153 142 125 78 25 8 1 358 355 351 348 346 345 344 342 342 343 344 345 347 349 350 350 350 349 349 348 348 348 348 346 343 339 336 333 332 331 331 331 331 330 330 330 330 330 330 329 328 327 325 323 320
156 155 156 157 157 158 159 160 163 165 166 166 164 162 159 156 151 143 129 98 40 13 5 360 356 352 349 346 344 342 341 341 342 343 345 347 349 351 351 351 351 351 350 349 349 349 347 343 339 336 333 332 331 331 332 331 331 331 331 331 330 330 330 329 328 327 325 323 321
156 157 158 159 161 161 162 163 164 165 163 160 158 156 153 150 142 131 107 52 20 8 2 357 352 348 346 344 342 341 340 340 341 342 345 348 350 352 353 353 353 352 351 350 350 348 344 338 335 333 332 331 332 332 332 332 332 332 331 331 331 330 330 329 328 327 325 324 323
159 160 162 163 164 164 165 165 164 162 158 154 153 151 148 142 131 108 64 27 10 2 357 352 347 344 343 343 343 343 343 343 343 344 345 348 351 353 354 354 354 353 352 351 350 345 338 334 332 331 332 332 332 333 333 333 333 333 332 332 331 330 329 329 328 327 326 326 326
162 163 165 165 165 165 164 162 160 156 153 151 150 148 143 133 111 66 28 9 2 356 351 347 343 341 342 343 344 346 347 347 347 347 347 348 350 352 353 354 354 353 352 351 346 338 333 331 331 332 332 332 333 333 333 333 334 333 333 333 332 330 329 328 327 327 328 328 329
164 165 165 165 164 162 160 157 155 152 150 149 148 143 132 114 72 23 5 358 354 349 345 343 341 342 343 344 346 347 349 351 351 351 350 351 351 352 353 353 353 352 351 349 342 335 332 331 332 332 333 333 333 334 334 334 334 334 334 333 332 330 328 327 327 328 329 331 331
164 164 163 162 160 157 154 153 151 149 148 146 141 132 114 81 20 358 351 349 346 343 341 341 343 344 345 345 346 349 351 352 353 353 353 352 352 352 352 351 351 350 349 347 339 333 331 332 333 334 334 334 334 334 334 334 335 335 335 334 332 330 329 327 327 328 330 332 333
162 161 159 158 155 153 151 150 148 146 144 141 133 122 93 24 353 345 344 342 340 339 341 343 344 344 344 345 347 349 351 353 354 354 353 352 352 351 350 350 349 348 347 345 337 332 331 332 333 334 335 335 334 334 334 334 335 335 335 334 332 331 329 329 329 330 332 333 332
160 158 157 155 153 151 150 149 146 144 142 139 131 114 31 349 342 339 339 338 339 342 344 345 344 344 344 347 348 349 351 353 354 354 353 352 351 350 348 347 346 346 346 344 337 333 332 333 333 334 335 335 334 333 334 334 335 335 335 333 332 331 331 331 331 332 333 332 331
158 157 156 154 152 151 149 148 146 145 143 142 136 57 346 338 337 337 339 341 344 346 346 344 343 344 346 348 348 350 351 353 354 354 353 352 350 348 346 345 344 345 345 342 336 333 332 333 334 334 334 334 333 333 332 334 335 335 334 333 332 332 332 332 332 332 332 331 329
157 157 157 155 153 151 149 148 147 146 146 145 103 342 340 343 347 346 345 345 347 345 344 342 343 345 346 347 348 350 351 352 353 353 353 351 349 346 344 343 343 344 344 341 335 332 333 333 333 333 333 333 333 332 331 332 333 334 333 333 333 332 332 332 331 330 329 328 326
157 159 158 156 153 150 149 147 148 148 148 140 349 346 350 355 355 352 348 346 345 345 344 344 345 346 347 347 348 349 350 351 352 352 351 349 347 344 343 342 343 344 344 341 335 332 333 333 333 332 332 332 331 330 330 331 332 332 332 332 332 331 330 329 328 326 325 323 321
158 159 158 155 152 150 148 147 147 148 143 1 355 358 4 3 358 352 349 347 346 347 348 348 349 349 349 349 348 348 349 350 350 350 348 347 345 343 342 342 343 344 344 340 335 333 333 333 332 332 331 331 329 329 329 329 330 330 331 330 329 328 327 325 324 322 321 319 317
158 158 157 155 152 149 146 143 141 140 116 38 25 20 14 6 1 356 353 350 348 348 349 349 350 350 350 349 348 348 348 347 347 347 346 346 344 343 342 342 343 345 345 342 336 333 332 332 331 330 330 329 328 328 328 328 329 329 329 328 327 326 324 322 321 319 317 315 313
158 158 156 154 152 149 143 136 135 131 108 76 53 36 21 12 4 359 353 350 347 346 347 347 348 348 347 347 346 346 346 346 346 345 345 345 344 343 342 342 343 345 346 344 339 335 332 332 330 329 329 328 327 327 327 327 327 327 326 325 324 323 321 320 318 316 314 312 310
157 158 156 153 151 147 142 136 131 123 105 76 53 35 23 13 6 358 351 346 344 343 345 345 346 347 346 346 345 345 346 346 345 345 345 346 345 344 343 342 343 345 346 345 341 336 332 331 329 328 328 327 327 326 327 326 326 325 324 323 321 320 319 317 315 313 312 310 308
154 156 154 150 146 142 138 133 128 113 90 65 42 26 16 9 3 357 350 346 344 343 343 343 345 346 346 344 343 343 343 344 345 345 346 346 346 345 343 342 343 344 345 345 342 336 331 330 328 328 327 327 326 326 326 325 324 324 322 321 319 318 316 315 313 311 309 308 307
150 151 149 145 140 135 131 127 116 96 74 52 33 19 9 2 358 355 351 348 346 344 343 342 343 344 343 342 340 340 340 343 345 346 346 347 346 345 343 342 342 343 344 344 342 336 330 329 328 328 328 327 326 326 326 324 324 323 321 319 317 316 314 313 311 309 308 308 309
142 142 140 136 131 128 123 115 100 79 58 40 25 13 3 358 354 352 350 348 346 344 342 341 341 341 341 340 339 338 339 341 344 346 346 346 346 345 343 341 340 341 342 343 341 336 330 328 327 328 328 327 326 326 325 324 323 321 320 318 316 315 313 311 310 308 309 311 315
134 134 132 129 125 120 114 102 85 65 45 27 15 5 359 354 351 349 347 345 344 342 340 339 339 338 339 340 340 339 339 340 343 346 347 346 345 344 343 341 339 340 341 341 341 336 331 328 328 328 328 328 327 326 325 324 322 321 319 317 316 314 312 311 310 311 315 320 324
128 127 127 125 121 115 105 91 74 56 36 20 8 0 354 350 347 345 344 344 343 341 339 337 336 336 338 339 340 340 340 341 344 346 347 345 344 344 342 340 339 338 339 340 339 336 331 328 328 328 329 328 327 327 326 324 322 320 318 317 315 313 312 312 315 320 326 328 326